Weather History for KRPJ - July, 2013

Change the Weather History Date:

Sunday, July 14, 2013

  Actual Average (KRFD) Record (KRFD)
Temperature  
Mean Temperature 75 °F 74 °F  
Max Temperature 87 °F 85 °F 112 °F (1936)
Min Temperature 63 °F 63 °F 45 °F (1926)
Degree Days  
Heating Degree Days 0 0  
Month to date heating degree days 0  
Since 1 June heating degree days 31  
Since 1 July heating degree days 0  
Cooling Degree Days 10 9  
Month to date cooling degree days 126  
Year to date cooling degree days 356  
Since 1 June cooling degree days 301  
Growing Degree Days 25 (Base 50)    
Moisture  
Dew Point 65 °F    
Average Humidity 70    
Maximum Humidity 91    
Minimum Humidity 46    
Precipitation  
Precipitation 0.00 in 0.12 in 2.46 in (1972)
Month to date precipitation 1.76  
Year to date precipitation 18.88  
Snow  
Snow 0.00 in 0.00 in 0.00 in ()
Month to date snowfall 0.0  
Since 1 June snowfall 0.0  
Since 1 July snowfall 0.0  
Snow Depth -    
Sea Level Pressure  
Sea Level Pressure 30.19 in    
Wind  
Wind Speed 6 mph (ESE)    
Max Wind Speed 10 mph    
Max Gust Speed -    
Visibility 10 miles    
Events      
T = Trace of Precipitation, MM = Missing Value Source: NWS Daily Summary

Daily Weather History Graph

Daily Weather History Graph

Search for Another Location

Airport or City:

Trip Planner

Search our weather history database for the weather conditions in past years. The results will help you decide how hot, cold, wet, or windy it might be!

Date:

Astronomy

Jul. 14, 2013 Rise Set
Actual Time 5:33 AM CDT 8:30 PM CDT
Civil Twilight 5:00 AM CDT 9:03 PM CDT
Nautical Twilight 4:18 AM CDT 9:45 PM CDT
Astronomical Twilight 3:28 AM CDT 10:34 PM CDT
Moon 11:57 AM CDT (7/14) 11:35 PM CDT (7/14)
Length of Visible Light 16h 02m
Length of Day
14h 56m
Waxing Crescent, 35% of the Moon is Illuminated
Jul 14
Waxing Crescent
Jul 15
First Quarter
Jul 22
Full
Jul 29
Last Quarter
Aug 6
New

Hourly Weather History & Observations

Time (CDT) Temp. Heat Index Dew Point Humidity Pressure Visibility Wind Dir Wind Speed Gust Speed Precip Events Conditions
12:15 AM 64.9 °F - 60.8 °F 86% 30.16 in 10.0 mi East 4.6 mph - N/A   Clear
12:35 AM 65.3 °F - 60.1 °F 83% 30.16 in 10.0 mi East 6.9 mph - N/A   Clear
12:55 AM 65.8 °F - 59.9 °F 81% 30.16 in 10.0 mi East 5.8 mph - N/A   Clear
1:15 AM 67.6 °F - 59.7 °F 76% 30.16 in 10.0 mi East 5.8 mph - N/A   Clear
1:35 AM 66.4 °F - 59.9 °F 80% 30.16 in 10.0 mi ENE 3.5 mph - N/A   Clear
1:55 AM 65.7 °F - 59.7 °F 81% 30.16 in 10.0 mi ENE 4.6 mph - N/A   Clear
2:15 AM 66.2 °F - 59.5 °F 79% 30.17 in 10.0 mi East 5.8 mph - N/A   Clear
2:35 AM 66.2 °F - 59.5 °F 79% 30.17 in 10.0 mi East 5.8 mph - N/A   Clear
2:55 AM 63.5 °F - 59.5 °F 87% 30.17 in 10.0 mi ESE 6.9 mph - N/A   Clear
3:15 AM 63.9 °F - 60.1 °F 87% 30.17 in 10.0 mi ESE 5.8 mph - N/A   Clear
3:35 AM 65.5 °F - 61.0 °F 85% 30.17 in 10.0 mi ESE 10.4 mph - N/A   Clear
3:55 AM 67.5 °F - 61.7 °F 82% 30.17 in 10.0 mi ESE 8.1 mph - N/A   Clear
4:15 AM 66.2 °F - 61.7 °F 85% 30.17 in 10.0 mi East 6.9 mph - N/A   Clear
4:35 AM 65.8 °F - 62.1 °F 88% 30.17 in 10.0 mi ESE 5.8 mph - N/A   Clear
4:55 AM 65.3 °F - 61.9 °F 89% 30.17 in 7.0 mi ESE 6.9 mph - N/A   Clear
5:15 AM 65.3 °F - 62.1 °F 89% 30.17 in 7.0 mi ESE 4.6 mph - N/A   Clear
5:35 AM 64.6 °F - 61.9 °F 91% 30.17 in 5.0 mi East 6.9 mph - N/A   Clear
5:55 AM 65.3 °F - 62.6 °F 91% 30.17 in 5.0 mi East 6.9 mph - N/A   Clear
6:15 AM 66.0 °F - 63.0 °F 90% 30.17 in 5.0 mi East 6.9 mph - N/A   Clear
6:35 AM 67.3 °F - 63.7 °F 88% 30.17 in 5.0 mi East 5.8 mph - N/A   Clear
6:55 AM 68.9 °F - 64.4 °F 86% 30.17 in 7.0 mi East 6.9 mph - N/A   Clear
7:15 AM 70.0 °F - 64.4 °F 82% 30.17 in 10.0 mi East 5.8 mph - N/A   Clear
7:35 AM 71.6 °F - 65.3 °F 80% 30.17 in 10.0 mi East 5.8 mph - N/A   Clear
7:55 AM 73.6 °F - 65.7 °F 76% 30.18 in 10.0 mi ESE 5.8 mph - N/A   Clear
8:15 AM 74.7 °F - 65.8 °F 74% 30.19 in 10.0 mi ESE 9.2 mph - N/A   Clear
8:35 AM 76.1 °F - 66.2 °F 71% 30.20 in 10.0 mi ESE 10.4 mph - N/A   Clear
8:55 AM 77.0 °F - 66.4 °F 70% 30.20 in 10.0 mi ESE 9.2 mph - N/A   Clear
9:15 AM 77.9 °F - 66.6 °F 68% 30.21 in 10.0 mi ESE 8.1 mph - N/A   Clear
9:35 AM 78.8 °F - 65.8 °F 64% 30.21 in 10.0 mi ESE 4.6 mph - N/A   Clear
9:55 AM 79.2 °F - 66.6 °F 65% 30.21 in 10.0 mi ESE 6.9 mph - N/A   Clear
10:15 AM 80.2 °F 82.3 °F 66.0 °F 62% 30.21 in 10.0 mi Calm Calm - N/A   Clear
10:35 AM 80.8 °F 82.9 °F 66.2 °F 61% 30.22 in 10.0 mi Calm Calm - N/A   Clear
10:55 AM 81.3 °F 83.5 °F 66.4 °F 60% 30.22 in 10.0 mi East 4.6 mph - N/A   Scattered Clouds
11:15 AM 81.7 °F 84.0 °F 66.6 °F 60% 30.22 in 10.0 mi East 5.8 mph - N/A   Scattered Clouds
11:35 AM 82.0 °F 84.1 °F 65.8 °F 58% 30.22 in 10.0 mi East 3.5 mph - N/A   Scattered Clouds
11:55 AM 81.7 °F 84.0 °F 66.4 °F 60% 30.22 in 10.0 mi East 5.8 mph - N/A   Mostly Cloudy
12:15 PM 82.8 °F 85.1 °F 66.4 °F 58% 30.22 in 10.0 mi Calm Calm - N/A   Mostly Cloudy
12:35 PM 84.2 °F 87.1 °F 67.3 °F 57% 30.22 in 10.0 mi South 3.5 mph - N/A   Scattered Clouds
12:55 PM 83.7 °F 86.2 °F 66.7 °F 57% 30.22 in 10.0 mi ESE 5.8 mph - N/A   Scattered Clouds
1:15 PM 82.8 °F 85.1 °F 66.6 °F 58% 30.22 in 10.0 mi ESE 6.9 mph - N/A   Mostly Cloudy
1:35 PM 85.3 °F 88.2 °F 67.6 °F 55% 30.22 in 10.0 mi East 5.8 mph - N/A   Mostly Cloudy
1:55 PM 86.0 °F 87.9 °F 65.7 °F 50% 30.22 in 10.0 mi ESE 8.1 mph - N/A   Scattered Clouds
2:15 PM 85.6 °F 87.6 °F 65.8 °F 51% 30.21 in 10.0 mi ESE 9.2 mph - N/A   Scattered Clouds
2:35 PM 85.3 °F 86.8 °F 64.6 °F 50% 30.21 in 10.0 mi East 5.8 mph - N/A   Scattered Clouds
2:55 PM 87.4 °F 89.1 °F 64.9 °F 47% 30.21 in 10.0 mi East 3.5 mph - N/A   Scattered Clouds
3:15 PM 86.9 °F 89.3 °F 66.0 °F 50% 30.21 in 10.0 mi East 10.4 mph - N/A   Scattered Clouds
3:35 PM 86.9 °F 89.3 °F 66.0 °F 50% 30.20 in 10.0 mi ESE 8.1 mph - N/A   Scattered Clouds
3:55 PM 87.6 °F 89.1 °F 64.6 °F 46% 30.20 in 10.0 mi East 5.8 mph - N/A   Scattered Clouds
4:15 PM 86.9 °F 88.3 °F 64.2 °F 47% 30.20 in 10.0 mi East 8.1 mph - N/A   Scattered Clouds
4:35 PM 86.2 °F 88.4 °F 65.8 °F 51% 30.20 in 10.0 mi SE 8.1 mph - N/A   Clear
4:55 PM 87.3 °F 89.2 °F 65.7 °F 48% 30.18 in 10.0 mi ESE 8.1 mph - N/A   Clear
5:15 PM 85.6 °F 87.9 °F 66.4 °F 52% 30.18 in 10.0 mi SE 6.9 mph - N/A   Clear
5:35 PM 86.4 °F 88.7 °F 66.0 °F 51% 30.18 in 10.0 mi ESE 4.6 mph - N/A   Clear
5:55 PM 86.0 °F 88.2 °F 66.2 °F 51% 30.18 in 10.0 mi SE 8.1 mph - N/A   Clear
6:15 PM 85.8 °F 88.8 °F 67.3 °F 54% 30.18 in 10.0 mi SE 6.9 mph - N/A   Clear
6:35 PM 85.5 °F 87.6 °F 66.0 °F 52% 30.18 in 10.0 mi SE 5.8 mph - N/A   Clear
6:55 PM 85.1 °F 87.7 °F 66.6 °F 54% 30.18 in 10.0 mi SE 6.9 mph - N/A   Clear
7:15 PM 83.7 °F 86.2 °F 67.1 °F 57% 30.19 in 10.0 mi ESE 3.5 mph - N/A   Clear
7:35 PM 83.5 °F 86.9 °F 68.5 °F 61% 30.19 in 10.0 mi East 3.5 mph - N/A   Clear
7:55 PM 82.6 °F 85.7 °F 68.2 °F 62% 30.19 in 10.0 mi East 3.5 mph - N/A   Clear
8:15 PM 80.4 °F 83.4 °F 69.1 °F 68% 30.19 in 10.0 mi East 4.6 mph - N/A   Clear
8:35 PM 77.4 °F - 70.2 °F 78% 30.20 in 10.0 mi ESE 5.8 mph - N/A   Clear
8:55 PM 76.5 °F - 68.9 °F 77% 30.20 in 10.0 mi ESE 4.6 mph - N/A   Clear
9:15 PM 75.4 °F - 69.1 °F 81% 30.21 in 10.0 mi ESE 5.8 mph - N/A   Clear
9:35 PM 75.0 °F - 68.7 °F 81% 30.21 in 10.0 mi East 5.8 mph - N/A   Clear
9:55 PM 73.4 °F - 68.5 °F 85% 30.22 in 10.0 mi East 4.6 mph - N/A   Clear
10:15 PM 73.8 °F - 68.2 °F 83% 30.22 in 10.0 mi East 5.8 mph - N/A   Clear
10:35 PM 72.7 °F - 68.0 °F 85% 30.22 in 10.0 mi East 5.8 mph - N/A   Clear
10:55 PM 72.5 °F - 68.0 °F 86% 30.22 in 10.0 mi East 8.1 mph - N/A   Clear
11:15 PM 71.6 °F - 67.5 °F 87% 30.22 in 10.0 mi East 5.8 mph - N/A   Clear
11:35 PM 71.4 °F - 67.3 °F 87% 30.23 in 7.0 mi East 6.9 mph - N/A   Clear
11:55 PM 71.6 °F - 67.1 °F 86% 30.23 in 7.0 mi ESE 5.8 mph - N/A   Clear